Tracking 28790 objects as of 19-Apr-2024
HD Live streaming from Space Station
objects crossing your sky now

DELTA 1 DEB

Track DELTA 1 DEB now!
10-day predictions


NORAD ID: 37639
Int'l Code: 1978-026JA
Perigee: 872.0 km
Apogee: 1,043.5 km
Inclination: 98.9 °
Period: 104.1 minutes
Semi major axis: 7328 km
RCS: 0.0118 m2 (small)
Launch date: March 5, 1978
Source: United States (US)
Launch site: AIR FORCE WESTERN TEST RANGE (AFWTR)

Note: This is SATELLITE DEBRIS
Your satellite tracking list
Your tracking list is empty




NASA's NSSDC Master Catalog

Two Line Element Set (TLE):
1 37639U 78026JA  24110.05816181  .00001056  00000-0  94067-3 0  9990
2 37639  98.8854  50.6030 0117023   9.9479  48.4613 13.83746353163209
Source of the keplerian elements: AFSPC